TimeEDT,TemperatureF,Dew PointF,Humidity,Sea Level PressureIn,VisibilityMPH,Wind Direction,Wind SpeedMPH,Gust SpeedMPH,PrecipitationIn,Events,Conditions,WindDirDegrees,DateUTC
12:53 AM,55.9,51.1,84,29.95,10.0,North,3.5,-,N/A,,Clear,10,2012-10-28 04:53:00
1:53 AM,55.9,48.9,77,29.94,10.0,North,3.5,-,N/A,,Clear,10,2012-10-28 05:53:00
2:53 AM,55.9,46.0,69,29.93,10.0,North,5.8,-,N/A,,Clear,10,2012-10-28 06:53:00
3:53 AM,55.0,45.0,69,29.93,10.0,NNE,8.1,-,N/A,,Clear,20,2012-10-28 07:53:00
4:53 AM,55.0,43.0,64,29.93,10.0,NNE,5.8,-,N/A,,Clear,20,2012-10-28 08:53:00
5:53 AM,54.0,41.0,62,29.93,10.0,NNE,3.5,-,N/A,,Clear,20,2012-10-28 09:53:00
6:16 AM,53.6,41.0,62,29.93,10.0,NNE,6.9,-,N/A,,Mostly Cloudy,20,2012-10-28 10:16:00
6:53 AM,54.0,39.9,59,29.92,10.0,North,8.1,-,N/A,,Overcast,10,2012-10-28 10:53:00
7:53 AM,54.0,41.0,62,29.93,10.0,NNE,9.2,-,N/A,,Overcast,20,2012-10-28 11:53:00
8:53 AM,54.0,43.0,66,29.94,10.0,North,6.9,-,N/A,,Overcast,360,2012-10-28 12:53:00
9:53 AM,54.0,45.0,72,29.94,10.0,North,10.4,-,N/A,,Overcast,10,2012-10-28 13:53:00
10:53 AM,55.0,46.0,72,29.91,10.0,NNE,5.8,-,N/A,,Overcast,20,2012-10-28 14:53:00
11:53 AM,55.0,46.9,74,29.89,10.0,NNE,13.8,20.7,N/A,,Overcast,20,2012-10-28 15:53:00
12:48 PM,55.4,50.0,82,29.87,10.0,North,9.2,-,N/A,,Overcast,10,2012-10-28 16:48:00
1:22 PM,57.2,50.0,77,29.84,10.0,NNE,9.2,-,N/A,,Overcast,30,2012-10-28 17:22:00
1:53 PM,57.9,48.9,72,29.83,10.0,NNE,13.8,21.9,N/A,,Overcast,20,2012-10-28 17:53:00
2:53 PM,59.0,48.0,67,29.80,10.0,NNE,11.5,17.3,N/A,,Overcast,30,2012-10-28 18:53:00
3:35 PM,57.2,48.2,72,29.80,10.0,NE,10.4,19.6,N/A,,Overcast,40,2012-10-28 19:35:00
3:53 PM,57.9,48.0,70,29.81,10.0,NE,8.1,-,N/A,,Overcast,40,2012-10-28 19:53:00
4:53 PM,57.0,48.0,72,29.81,10.0,NE,15.0,23.0,N/A,,Overcast,50,2012-10-28 20:53:00
5:53 PM,57.0,48.0,72,29.80,10.0,NNE,5.8,-,N/A,,Overcast,30,2012-10-28 21:53:00
6:53 PM,57.0,48.0,72,29.80,10.0,NE,11.5,23.0,N/A,,Overcast,40,2012-10-28 22:53:00
7:53 PM,55.9,46.9,72,29.79,10.0,NE,15.0,26.5,N/A,,Overcast,50,2012-10-28 23:53:00
8:53 PM,54.0,48.0,80,29.78,10.0,NNE,10.4,20.7,0.00,Rain,Light Rain,30,2012-10-29 00:53:00
9:53 PM,52.0,48.9,89,29.77,5.0,NE,10.4,19.6,0.00,Rain,Light Rain,40,2012-10-29 01:53:00
10:53 PM,54.0,46.0,75,29.72,10.0,NNE,8.1,19.6,0.00,,Overcast,20,2012-10-29 02:53:00
11:53 PM,52.0,46.9,83,29.70,10.0,North,9.2,18.4,N/A,,Overcast,360,2012-10-29 03:53:00